Weather History for Middlesboro, KY

Change the Weather History Date:

Monday, January 21, 2013

  Actual Average (KLOZ) Record (KLOZ)
Temperature  
Mean Temperature 35 °F 36 °F  
Max Temperature 46 °F 45 °F 67 °F (1959)
Min Temperature 24 °F 26 °F -18 °F (1985)
Degree Days  
Heating Degree Days 30 30  
Month to date heating degree days 626  
Since 1 July heating degree days 2278  
Cooling Degree Days 0 0  
Month to date cooling degree days 0  
Year to date cooling degree days 0  
Moisture  
Dew Point 19 °F    
Average Humidity 63    
Maximum Humidity 100    
Minimum Humidity 34    
Precipitation  
Precipitation 0.00 in 0.11 in 1.56 in (1979)
Month to date precipitation 2.39  
Year to date precipitation 2.39  
Sea Level Pressure  
Sea Level Pressure 30.13 in    
Wind  
Wind Speed 3 mph (WNW)    
Max Wind Speed 20 mph    
Max Gust Speed 26 mph    
Visibility 10 miles    
Events      
T = Trace of Precipitation, MM = Missing Value Source: NWS Daily Summary

Daily Weather History Graph

Daily Weather History Graph

Search for Another Location

Airport:

Trip Planner

Search our weather history database for the weather conditions in past years. The results will help you decide how hot, cold, wet, or windy it might be!

Date:

Astronomy

Jan. 21, 2013 Rise Set
Actual Time 6:43 AM CST 4:49 PM CST
Civil Twilight 6:15 AM CST 5:17 PM CST
Nautical Twilight 5:44 AM CST 5:48 PM CST
Astronomical Twilight 5:13 AM CST 6:19 PM CST
Moon 12:29 PM CST (1/21) 2:10 AM CST (1/21)
Length of Visible Light 11h 01m
Length of Day
10h 05m
Waxing Gibbous, 75% of the Moon is Illuminated
Jan 21
Waxing Gibbous
Jan 26
Full
Feb 3
Last Quarter
Feb 10
New
Feb 17
First Quarter

Hourly Weather History & Observations

Time (CST) Temp. Windchill Dew Point Humidity Pressure Visibility Wind Dir Wind Speed Gust Speed Precip Events Conditions
12:15 AM 28.4 °F - 26.6 °F 93% 30.12 in 10.0 mi Calm Calm - N/A   Clear
12:35 AM 28.4 °F - 26.6 °F 93% 30.13 in 10.0 mi Calm Calm - N/A   Clear
12:55 AM 26.6 °F - 26.6 °F 100% 30.13 in 10.0 mi Calm Calm - N/A   Clear
1:15 AM 26.6 °F - 26.6 °F 100% 30.13 in 10.0 mi Calm Calm - N/A   Clear
1:35 AM 26.6 °F - 26.6 °F 100% 30.13 in 10.0 mi Calm Calm - N/A   Clear
1:55 AM 26.6 °F - 26.6 °F 100% 30.13 in 10.0 mi Calm Calm - N/A   Clear
2:15 AM 26.6 °F - 26.6 °F 100% 30.12 in 10.0 mi Calm Calm - N/A   Clear
2:35 AM 26.6 °F - 24.8 °F 93% 30.12 in 10.0 mi Calm Calm - N/A   Clear
2:55 AM 26.6 °F - 24.8 °F 93% 30.11 in 10.0 mi Calm Calm - N/A   Clear
3:15 AM 26.6 °F - 24.8 °F 93% 30.10 in 10.0 mi Calm Calm - N/A   Clear
3:35 AM 24.8 °F - 24.8 °F 100% 30.10 in 10.0 mi Calm Calm - N/A   Clear
3:55 AM 24.8 °F - 24.8 °F 100% 30.10 in 10.0 mi Calm Calm - N/A   Clear
4:15 AM 24.8 °F - 24.8 °F 100% 30.09 in 10.0 mi Calm Calm - N/A   Clear
4:35 AM 24.8 °F - 24.8 °F 100% 30.09 in 10.0 mi Calm Calm - N/A   Clear
4:55 AM 24.8 °F - 24.8 °F 100% 30.10 in 10.0 mi Calm Calm - N/A   Clear
5:15 AM 24.8 °F - 23.0 °F 93% 30.10 in 10.0 mi Calm Calm - N/A   Clear
5:35 AM 24.8 °F - 23.0 °F 93% 30.10 in 10.0 mi Calm Calm - N/A   Clear
5:55 AM 24.8 °F - 23.0 °F 93% 30.10 in 10.0 mi Calm Calm - N/A   Clear
6:15 AM 24.8 °F - 23.0 °F 93% 30.12 in 10.0 mi Calm Calm - N/A   Clear
6:35 AM 24.8 °F - 23.0 °F 93% 30.12 in 10.0 mi Calm Calm - N/A   Clear
6:55 AM 24.8 °F - 23.0 °F 93% 30.13 in 10.0 mi Calm Calm - N/A   Clear
7:15 AM 24.8 °F - 23.0 °F 93% 30.13 in 10.0 mi Calm Calm - N/A   Clear
7:35 AM 24.8 °F - 24.8 °F 100% 30.13 in 7.0 mi Calm Calm - N/A   Clear
7:55 AM 26.6 °F - 24.8 °F 93% 30.14 in 7.0 mi Calm Calm - N/A   Clear
8:15 AM 28.4 °F - 26.6 °F 93% 30.14 in 7.0 mi Calm Calm - N/A   Clear
8:35 AM 32.0 °F - 30.2 °F 93% 30.14 in 10.0 mi Calm Calm - N/A   Clear
8:55 AM 37.4 °F - 26.6 °F 65% 30.14 in 10.0 mi Calm Calm - N/A   Clear
9:15 AM 37.4 °F - 23.0 °F 56% 30.15 in 10.0 mi Calm Calm - N/A   Clear
9:35 AM 37.4 °F - 21.2 °F 52% 30.16 in 10.0 mi Calm Calm - N/A   Clear
9:55 AM 39.2 °F 33.6 °F 19.4 °F 45% 30.16 in 10.0 mi NW 8.1 mph 16.1 mph N/A   Clear
10:15 AM 39.2 °F 35.0 °F 19.4 °F 45% 30.16 in 10.0 mi West 5.8 mph - N/A   Clear
10:35 AM 42.8 °F 39.3 °F 19.4 °F 39% 30.15 in 10.0 mi West 5.8 mph - N/A   Clear
10:55 AM 42.8 °F 38.0 °F 17.6 °F 36% 30.15 in 10.0 mi West 8.1 mph - N/A   Clear
11:15 AM 42.8 °F 39.3 °F 17.6 °F 36% 30.13 in 10.0 mi West 5.8 mph - N/A   Clear
11:35 AM 42.8 °F 37.5 °F 17.6 °F 36% 30.13 in 10.0 mi West 9.2 mph - N/A   Clear
11:55 AM 42.8 °F 38.0 °F 17.6 °F 36% 30.11 in 10.0 mi West 8.1 mph 18.4 mph N/A   Clear
12:15 PM 44.6 °F 38.4 °F 17.6 °F 34% 30.10 in 10.0 mi West 12.7 mph 17.3 mph N/A   Clear
12:35 PM 44.6 °F 38.1 °F 17.6 °F 34% 30.09 in 10.0 mi West 13.8 mph 19.6 mph N/A   Clear
12:55 PM 44.6 °F 40.2 °F 17.6 °F 34% 30.08 in 10.0 mi WNW 8.1 mph 18.4 mph N/A   Clear
1:15 PM 44.6 °F 40.2 °F 17.6 °F 34% 30.08 in 10.0 mi West 8.1 mph 16.1 mph N/A   Clear
1:35 PM 46.4 °F 42.4 °F 19.4 °F 34% 30.08 in 10.0 mi West 8.1 mph - N/A   Clear
1:55 PM 44.6 °F 40.2 °F 19.4 °F 37% 30.08 in 10.0 mi WNW 8.1 mph 18.4 mph N/A   Clear
2:15 PM 44.6 °F 39.7 °F 19.4 °F 37% 30.08 in 10.0 mi West 9.2 mph - N/A   Clear
2:35 PM 44.6 °F 38.4 °F 19.4 °F 37% 30.07 in 10.0 mi WSW 12.7 mph 20.7 mph N/A   Clear
2:55 PM 44.6 °F 40.2 °F 19.4 °F 37% 30.08 in 10.0 mi West 8.1 mph 18.4 mph N/A   Clear
3:15 PM 42.8 °F 34.3 °F 19.4 °F 39% 30.09 in 10.0 mi WNW 19.6 mph 26.5 mph N/A   Clear
3:35 PM 42.8 °F 38.6 °F 17.6 °F 36% 30.09 in 10.0 mi WNW 6.9 mph - N/A   Clear
3:55 PM 41.0 °F 36.4 °F 19.4 °F 42% 30.09 in 10.0 mi West 6.9 mph - N/A   Clear
4:15 PM 39.2 °F 34.2 °F 17.6 °F 42% 30.09 in 10.0 mi NNW 6.9 mph - N/A   Clear
4:35 PM 37.4 °F 29.3 °F 15.8 °F 41% 30.10 in 10.0 mi NNW 12.7 mph - N/A   Clear
5:15 PM 35.6 °F 29.2 °F 15.8 °F 44% 30.11 in 10.0 mi NW 8.1 mph - N/A   Clear
5:35 PM 35.6 °F 30.7 °F 15.8 °F 44% 30.11 in 10.0 mi NW 5.8 mph - N/A   Clear
5:55 PM 33.8 °F 27.7 °F 14.0 °F 44% 30.12 in 10.0 mi NNW 6.9 mph - N/A   Clear
6:15 PM 33.8 °F 29.6 °F 12.2 °F 41% 30.12 in 10.0 mi NW 4.6 mph 9.2 mph N/A   Clear
6:55 PM 33.8 °F 27.7 °F 14.0 °F 44% 30.14 in 10.0 mi NW 6.9 mph - N/A   Clear
7:15 PM 32.0 °F 24.8 °F 14.0 °F 48% 30.15 in 10.0 mi NW 8.1 mph - N/A   Clear
7:35 PM 30.2 °F 24.3 °F 14.0 °F 51% 30.15 in 10.0 mi NNW 5.8 mph - N/A   Clear
7:55 PM 30.2 °F 21.9 °F 12.2 °F 47% 30.15 in 10.0 mi NW 9.2 mph - N/A   Clear
8:15 PM 30.2 °F 21.9 °F 12.2 °F 47% 30.17 in 10.0 mi NW 9.2 mph 16.1 mph N/A   Clear
8:35 PM 28.4 °F 20.4 °F 10.4 °F 47% 30.17 in 10.0 mi NW 8.1 mph - N/A   Clear
8:55 PM 28.4 °F 24.6 °F 10.4 °F 47% 30.18 in 10.0 mi NNW 3.5 mph - N/A   Clear
9:15 PM 28.4 °F 24.6 °F 10.4 °F 47% 30.19 in 10.0 mi WNW 3.5 mph - N/A   Scattered Clouds
9:35 PM 28.4 °F 22.2 °F 10.4 °F 47% 30.20 in 10.0 mi NW 5.8 mph - N/A   Scattered Clouds
9:55 PM 26.6 °F 18.2 °F 10.4 °F 51% 30.20 in 10.0 mi NW 8.1 mph - N/A   Clear
10:15 PM 26.6 °F 18.2 °F 8.6 °F 47% 30.20 in 10.0 mi West 8.1 mph - N/A   Clear
10:35 PM 26.6 °F 20.0 °F 8.6 °F 47% 30.20 in 10.0 mi WNW 5.8 mph - N/A   Mostly Cloudy
10:55 PM 26.6 °F 18.2 °F 8.6 °F 47% 30.20 in 10.0 mi WNW 8.1 mph 20.7 mph N/A   Scattered Clouds
11:15 PM 26.6 °F 19.1 °F 8.6 °F 47% 30.21 in 10.0 mi NW 6.9 mph - N/A   Clear
11:35 PM 24.8 °F 19.1 °F 8.6 °F 50% 30.20 in 10.0 mi NW 4.6 mph - N/A   Scattered Clouds
11:55 PM 24.8 °F 20.5 °F 8.6 °F 50% 30.20 in 10.0 mi NNW 3.5 mph - N/A   Mostly Cloudy